OpenBCM V1.08-5-g2f4a (Linux)

Packet Radio Mailbox

IZ3LSV

[San Dona' di P. JN]

 Login: GUEST





  
WG3K   > KEPS     08.12.24 03:39l 357 Lines 17089 Bytes #166 (0) @ AMSAT
BID : ORB24343.1
Read: GUEST
Subj: 2Line Orbital Elements 24343.AMSAT
Path: IZ3LSV<DB0ERF<DK0WUE<PD0LPM<GB7RJJ<K7EK<KA1VSC<WG3K
Sent: 241208/0229Z 10667@WG3K.#SMD.MD.USA.NOAM LinBPQ6.0.24


QST de W1STR

AMSAT Orbital Elements for Amateur Satellites in TLE Format
From Orbital Analysis Office
New England Sci-Tech STEM Education Center
Natick, MA December 08, 2024
To all radio amateurs


These element sets describe the orbits of various satellites 
in use by the amateur radio community. For details see:
www.amsat.org/keplerian-elements-formats/

A daily update of element sets is available at:
www.amsat.org/tle/daily-bulletin.txt
or without bulletin text:
www.amsat.org/tle/dailytle.txt


AO-07
1 07530U 74089B   24342.49168976 -.00000025  00000-0  13512-3 0  9991
2 07530 101.9898 338.8336 0012368 113.0545  41.9091 12.53683462290753
UO-11
1 14781U 84021B   24342.52104572  .00004117  00000-0  45190-3 0  9992
2 14781  97.7302 306.9770 0006671 215.2918 144.7858 14.88204486174252
AO-27
1 22825U 93061C   24342.71242198  .00000371  00000-0  15939-3 0  9998
2 22825  98.7658  37.1060 0007403 294.3916  65.6493 14.30675714627690
FO-29
1 24278U 96046B   24342.57839933  .00000052  00000-0  86083-4 0  9996
2 24278  98.5876 254.5336 0350969  99.1633 264.9380 13.53224309397888
NOAA-15
1 25338U 98030A   24342.81210148  .00000442  00000-0  20013-3 0  9990
2 25338  98.5538   6.2113 0010403 171.3140 188.8223 14.26819542382196
GO-32
1 25397U 98043D   24342.42360164  .00000334  00000-0  16502-3 0  9998
2 25397  98.9474 311.9576 0001981  49.2548 310.8801 14.24206896372074
ISS
1 25544U 98067A   24342.92700370  .00018439  00000-0  32619-3 0  9992
2 25544  51.6391 174.6221 0006784 314.0735 193.4848 15.50339791485498
NO-44
1 26931U 01043C   24342.14410970  .00000558  00000-0  24061-3 0  9994
2 26931  67.0509 244.6321 0006883 260.8176  99.2147 14.31531868210709
SO-50
1 27607U 02058C   24342.62712938  .00003149  00000-0  42497-3 0  9996
2 27607  64.5556  47.8784 0034166  25.1578 335.1181 14.80465372182194
CO-55
1 27844U 03031E   24342.77964631  .00001007  00000-0  46043-3 0  9998
2 27844  98.6778 347.4513 0009818   7.6702 352.4625 14.23688701112514
CO-57
1 27848U 03031J   24342.50412013  .00000840  00000-0  39155-3 0  9995
2 27848  98.6808 347.3181 0010022  24.6945 335.4711 14.23068164112184
RS-22
1 27939U 03042A   24342.79478867  .00003340  00000-0  54816-3 0  9997
2 27939  98.3077 142.1360 0010831 228.6045 246.9982 14.71335191133791
NOAA-18
1 28654U 05018A   24342.79591315  .00000496  00000-0  28712-3 0  9996
2 28654  98.8615  58.2208 0013248 292.1007  67.8759 14.13446095  7789
CO-58
1 28895U 05043F   24342.37273061  .00004497  00000-0  76428-3 0  9992
2 28895  98.2240 118.9178 0015335 166.9426 193.2180 14.69570555 19871
CO-65
1 32785U 08021C   24342.49347142  .00009631  00000-0  76170-3 0  9998
2 32785  97.7714 307.0388 0013001 120.0842 240.1672 15.00780517901504
AAUSAT2
1 32788U 08021F   24342.41048009  .00067134  00000-0  18987-2 0  9996
2 32788  97.6052 325.2397 0001712  38.4317 321.7048 15.36071927904725
CO-66
1 32791U 08021J   24342.37251453  .00018639  00000-0  11159-2 0  9994
2 32791  97.7107 313.5737 0007607  81.0602 279.1489 15.11042994902604
RS-30
1 32953U 08025A   24342.66754820  .00000042  00000-0  23142-3 0  9991
2 32953  82.5031 341.5825 0020677  86.8608 273.4837 12.43154711750688
PRISM
1 33493U 09002B   24342.73933666  .00081484  00000-0  20578-2 0  9990
2 33493  98.1771  47.3059 0007797   4.4677 355.6634 15.39485746865545
NOAA-19
1 33591U 09005A   24342.77285468  .00000439  00000-0  25868-3 0  9995
2 33591  99.0254  40.2300 0014173 159.5798 200.5943 14.13223261816149
SRMSAT
1 37841U 11058D   24342.85791741  .00000692  00000-0  23283-3 0  9993
2 37841  19.9700 186.2275 0011757 204.0157 267.8425 14.11305191679341
RS-40
1 38735U 12041C   24342.52572424  .00000035  00000-0  18119-3 0  9991
2 38735  82.4774  61.7982 0017476 197.9977 162.0486 12.42621639560708
ZACUBE-1
1 39417U 13066B   24342.87071922  .00011417  00000-0  10745-2 0  9994
2 39417  97.7571 295.5832 0045647 306.6247  53.0778 14.93228390597462
Delfi-N3xt
1 39428U 13066N   24342.75846221  .00013946  00000-0  15747-2 0  9991
2 39428  97.8361 257.0590 0090010 243.8734 115.3199 14.83704506591957
GOMX-1
1 39430U 13066Q   24342.73234955  .00004248  00000-0  68013-3 0  9997
2 39430  97.7042 206.5661 0137216  60.3575 301.1214 14.66099751588452
LO-74
1 39440U 13066AA  24342.82993852  .00009331  00000-0  10087-2 0  9991
2 39440  97.8309 283.2804 0067764  65.7190 295.1084 14.86826634595302
AO-73
1 39444U 13066AE  24342.43407286  .00014983  00000-0  12701-2 0  9997
2 39444  97.7422 298.8599 0041073 284.7699  74.8974 14.97395723595982
DTUSAT-2
1 40030U 14033W   24342.85161808  .00014861  00000-0  10921-2 0  9995
2 40030  98.0323 300.7081 0009539 330.9193  29.1499 15.03499739569258
EO-80
1 40032U 14033Y   24342.41573038  .00013296  00000-0  97653-3 0  9990
2 40032  98.0240 300.1568 0006406 262.0886  97.9612 15.03571005568656
XW-2C
1 40906U 15049H   24342.82102917  .00139566  00000-0  11849-2 0  9998
2 40906  97.4570   6.6380 0005768  49.6453 310.5312 15.69189703511419
LILACSAT-2
1 40908U 15049K   24342.74428915  .00017938  00000-0  57268-3 0  9994
2 40908  97.5198 353.3808 0012938  95.7932 264.4785 15.32462080510014
IO-86
1 40931U 15052B   24337.09180034  .00002217  00000-0  20975-3 0  9992
2 40931   5.9986 232.5457 0013173 302.5393  57.3463 14.78392648496340
ChubuSat-2
1 41338U 16012B   24342.40213438  .00010572  00000-0  59108-3 0  9990
2 41338  31.0018 352.9994 0010940 180.9918 179.0700 15.12172085483804
ChubuSat-3
1 41339U 16012C   24342.43372282  .00008984  00000-0  51609-3 0  9999
2 41339  31.0084 352.6828 0011024 183.3472 176.7094 15.11154119483680
Horyu-4
1 41340U 16012D   24342.53153941  .00029189  00000-0  11124-2 0  9998
2 41340  31.0003 279.1089 0009459 301.2446  58.7270 15.25483659484557
Lapan A3
1 41603U 16040E   24342.77577318  .00006284  00000-0  23482-3 0  9997
2 41603  97.1396 348.8704 0010765 195.2651 164.8266 15.27641640469708
Pratham
1 41783U 16059A   24342.51264753  .00001994  00000-0  37173-3 0  9999
2 41783  97.8296 353.7429 0031772 187.8165 172.2549 14.65747363437926
CAS-2T
1 41847U 16066G   24342.31316218  .00002295  00000-0  33752-3 0  9994
2 41847  98.4432  52.3017 0349937  15.6620 345.5072 14.42511968424444
CAS-4B
1 42759U 17034B   24342.82373298  .00045974  00000-0  10909-2 0  9999
2 42759  43.0147 317.2832 0012926  95.5567 264.6764 15.40903194414067
CAS-4A
1 42761U 17034D   24342.80535059  .00045274  00000-0  10636-2 0  9995
2 42761  43.0186 315.5354 0013755 104.8702 255.3679 15.41198235414075
D-SAT
1 42794U 17036AF  24342.51125423  .00012977  00000-0  80682-3 0  9994
2 42794  97.4955 318.6483 0099253 278.6753  80.3241 15.05685452406780
TechnoSat
1 42829U 17042E   24342.47556574  .00007060  00000-0  58097-3 0  9992
2 42829  97.3857 154.2251 0012038 208.2724 151.7848 14.99340556403114
AO-91
1 43017U 17073E   24342.62418635  .00013522  00000-0  74742-3 0  9993
2 43017  97.5482 212.3507 0194284  71.0646 291.1525 14.99247829381590
S-Net D
1 43186U 18014G   24342.57304457  .00009497  00000-0  61355-3 0  9998
2 43186  97.5756 241.6107 0011181 127.0694 233.1558 15.08394218374603
S-Net B
1 43187U 18014H   24342.31108727  .00009283  00000-0  59997-3 0  9995
2 43187  97.5765 241.3139 0012077 124.1320 236.1055 15.08375731374564
S-Net A
1 43188U 18014J   24342.44129060  .00008996  00000-0  58132-3 0  9993
2 43188  97.5770 241.5707 0011912 124.3594 235.8763 15.08394267374585
S-Net C
1 43189U 18014K   24342.71115513  .00009668  00000-0  62425-3 0  9999
2 43189  97.5788 241.8187 0013793 117.9462 242.3164 15.08381979373179
Ten-Koh
1 43677U 18084G   24342.44395073  .00006373  00000-0  53641-3 0  9999
2 43677  98.0788 141.6030 0013655 161.9966 198.1742 14.98539500332646
PO-101
1 43678U 18084H   24342.77994280  .00003605  00000-0  32013-3 0  9996
2 43678  98.0866 146.2581 0008706 171.2200 188.9174 14.96802119332870
QO-100
1 43700U 18090A   24342.31072331  .00000161  00000-0  00000-0 0  9995
2 43700   0.0140  48.6758 0002095 245.9333 279.6343  1.00271844 22098
MinXSS-2
1 43758U 18099A   24342.17895168  .00022137  00000-0  11210-2 0  9996
2 43758  97.5311  42.5195 0015257  82.6128 277.6838 15.16905402328937
AO-95
1 43770U 18099N   24342.12337221  .00014885  00000-0  87851-3 0  9992
2 43770  97.5217  36.6773 0013058 127.7326 232.5090 15.11558687328631
RANGE-B
1 43772U 18099Q   24342.69518353  .00028759  00000-0  13608-2 0  9996
2 43772  97.5009  41.7030 0004758  36.2862 323.8694 15.19309990328971
RANGE-A
1 43773U 18099R   24342.68947691  .00010309  00000-0  71028-3 0  9990
2 43773  97.4780  30.5028 0013355 101.4222 258.8506 15.05960209328518
MOVE-II
1 43780U 18099Y   24342.45211624  .00055197  00000-0  17446-2 0  9990
2 43780  97.4962  45.3619 0005256  90.4605 269.7238 15.32599674329294
SNUSat 2
1 43782U 18099AA  24342.73980939  .00013652  00000-0  84434-3 0  9997
2 43782  97.4903  35.4052 0014712  71.0620 289.2202 15.09857487328718
SnugLite
1 43784U 18099AC  24342.38847259  .00014895  00000-0  87393-3 0  9994
2 43784  97.4711  34.3762 0005233  80.4444 279.7377 15.11830409328758
ITASat 1
1 43786U 18099AE  24342.11507880  .00011473  00000-0  73114-3 0  9995
2 43786  97.4860  34.7622 0016837 119.9092 240.3812 15.08774038328606
EAGLET 1
1 43790U 18099AJ  24342.58322431  .00009134  00000-0  62610-3 0  9998
2 43790  97.5048  35.6176 0014038  99.2237 261.0578 15.06179225328341
ESEO
1 43792U 18099AL  24342.73274750  .00004053  00000-0  31902-3 0  9992
2 43792  97.4841  31.2795 0010067  67.4341 292.7948 15.01315585328228
CSIM
1 43793U 18099AM  24342.49171320  .00057564  00000-0  18434-2 0  9994
2 43793  97.5111  47.2528 0008945  66.0153 294.2024 15.32143049329141
